Flag for Malaysia Weather past 2 weeks in Kuching, Malaysia

Now
79 °F

Passing clouds.


Feels Like: 82 °F
Forecast: 80 / 91 °F
Wind: 1 mph from West

Location: Kuching Airport

Current Time: May 26, 2015 at 1:54:19 AM

Latest Report: May 26, 2015 at 1:30 AM


Visibility: N/A

Pressure: 29.86 "Hg

Humidity: 89%

Dew point: 75 °F

Location of KuchingLocation

Historic Weather in Kuching — Graph

°F

Kuching temperature yesterday

Maximum temperature yesterday: 95 °F (at 3:30 PM)
Minimum temperature yesterday: 77 °F (at 12:30 AM)
Average temperature yesterday: 83 °F

Past Weeks' High & Low Weather Summary

 TemperatureHumidityPressure
High95 °F (May 21, 2:30 PM)100% (May 11, 1:00 AM)29.95 "Hg (May 11, 1:00 AM)
Low75 °F (May 14, 6:30 AM)53% (May 25, 1:30 PM)29.71 "Hg (May 13, 4:30 PM)
Average81 °F86%29.84 "Hg
* Reported Midnight between May 10 and May 11 — May 26 12:30 AM, Kuching, Weather by CustomWeather, © 2015

Note: Actual official high and low records may vary slightly from our data, if they occured in-between our weather recording intervals... More about our weather records

Advertising

Kuching weather history for previous 24 hours

 ConditionsComfort  
Time TempWeatherWind HumidityBarometerVisibility
12:30 AM
Tue, May 26
81 °FPassing clouds.3 mph84%29.86 "HgN/A
12:00 AM81 °FPassing clouds.3 mph89%29.89 "HgN/A
11:30 PM
Mon, May 25
81 °FPassing clouds.3 mph89%29.89 "HgN/A
11:00 PM81 °FPassing clouds.5 mph89%29.89 "HgN/A
10:30 PM82 °FPassing clouds.1 mph84%29.89 "HgN/A
10:00 PM81 °FPassing clouds.2 mph89%29.89 "HgN/A
9:30 PM81 °FPassing clouds.No wind89%29.86 "HgN/A
9:00 PM81 °FPassing clouds.3 mph89%29.86 "HgN/A
8:30 PM82 °FPassing clouds.1 mph79%29.83 "HgN/A
8:00 PM82 °FPassing clouds.3 mph84%29.83 "HgN/A
7:30 PM84 °FPassing clouds.2 mph74%29.80 "HgN/A
7:00 PM84 °FPassing clouds.1 mph79%29.80 "HgN/A
6:30 PM88 °FPartly sunny.1 mph70%29.77 "HgN/A
6:00 PM88 °FThunderstorms. Broken clouds.5 mph70%29.77 "HgN/A
5:30 PM88 °FThunderstorms. Broken clouds.6 mph75%29.77 "HgN/A
5:00 PM90 °FSprinkles. Broken clouds.5 mph75%29.77 "HgN/A
4:30 PM95 °FBroken clouds.7 mph56%29.74 "HgN/A
4:00 PM95 °FBroken clouds.7 mph56%29.74 "HgN/A
3:30 PM95 °FBroken clouds.6 mph53%29.74 "HgN/A
2:30 PM93 °FBroken clouds.3 mph53%29.77 "HgN/A
2:00 PM93 °FBroken clouds.3 mph56%29.80 "HgN/A
1:30 PM93 °FBroken clouds.7 mph53%29.80 "HgN/A
1:00 PM91 °FBroken clouds.6 mph59%29.83 "HgN/A
12:30 PM91 °FBroken clouds.5 mph59%29.83 "HgN/A
11:30 AM90 °FBroken clouds.2 mph67%29.86 "HgN/A
11:00 AM88 °FBroken clouds.5 mph70%29.89 "HgN/A
10:30 AM86 °FBroken clouds.3 mph79%29.89 "HgN/A
10:00 AM86 °FBroken clouds.2 mph79%29.89 "HgN/A
9:30 AM86 °FBroken clouds.1 mph75%29.89 "HgN/A
9:00 AM84 °FBroken clouds.2 mph84%29.89 "HgN/A
8:30 AM82 °FBroken clouds.2 mph84%29.89 "HgN/A
8:00 AM81 °FBroken clouds.2 mph94%29.89 "HgN/A
7:30 AM79 °FBroken clouds.1 mph94%29.86 "HgN/A
7:00 AM77 °FBroken clouds.2 mph100%29.86 "HgN/A
6:30 AM77 °FBroken clouds.2 mph94%29.86 "Hg5 mi
6:00 AM77 °FPartly cloudy.1 mph94%29.86 "Hg4 mi
5:30 AM77 °FPartly cloudy.3 mph94%29.83 "Hg4 mi
5:00 AM77 °FPartly cloudy.3 mph94%29.86 "Hg4 mi
4:30 AM77 °FPartly cloudy.3 mph94%29.83 "Hg4 mi
4:00 AM77 °FPartly cloudy.2 mph94%29.83 "HgN/A
3:30 AM77 °FPartly cloudy.3 mph100%29.83 "HgN/A
3:00 AM77 °FPartly cloudy.2 mph100%29.83 "HgN/A
2:30 AM77 °FPartly cloudy.1 mph100%29.83 "HgN/A
2:00 AM77 °FPartly cloudy.3 mph100%29.86 "HgN/A
1:30 AM77 °FPartly cloudy.2 mph100%29.86 "HgN/A
1:00 AM77 °FPassing clouds.2 mph100%29.86 "HgN/A
Weather by CustomWeather, © 2015

See weather overviewHow to use our weather pages